Flag for U.S.A. Weather past 2 weeks in Allentown, Pennsylvania, U.S.A.

Now
24 °F

Overcast.


Feels Like: 14 °F
Forecast: 17 / 27 °F
Wind: 9 mph from Northwest

Location: Lehigh Valley International Airport

Current Time: Jan 27, 2015 at 8:03:12 AM

Latest Report: Jan 27, 2015 at 6:51 AM


Visibility: 10 mi

Pressure: 29.75 "Hg

Humidity: 71%

Dew point: 16 °F

Location of AllentownLocation

Historic Weather in Allentown — Graph

°F

Allentown temperature yesterday

Maximum temperature yesterday: 27 °F (at 12:51 AM)
Minimum temperature yesterday: 19 °F (at 7:51 AM)
Average temperature yesterday: 22 °F

Past Weeks' High & Low Weather Summary

 TemperatureHumidityPressure
High40 °F (Jan 16, 12:51 PM)93% (Jan 12, 1:59 PM)30.62 "Hg (Jan 12, 1:59 PM)
Low12 °F (Jan 17, 5:51 AM)27% (Jan 17, 1:51 PM)29.35 "Hg (Jan 24, 2:51 PM)
Average29 °F67%30.06 "Hg
* Reported Jan 12 6:51 AM — Jan 27 6:51 AM, Allentown, Weather by CustomWeather, © 2014

Note: Actual official high and low records may vary slightly from our data, if they occured in-between our weather recording intervals... More about our weather records

Advertising

Allentown weather history for previous 24 hours

 ConditionsComfort  
Time TempWeatherWind HumidityBarometerVisibility
6:51 AM
Jan 27
24 °FOvercast.9 mph71%29.75 "Hg10 mi
5:51 AM25 °FMostly cloudy.7 mph72%29.74 "Hg10 mi
4:51 AM26 °FLight snow. Overcast.6 mph74%29.73 "Hg4 mi
3:51 AM26 °FMostly cloudy.3 mph66%29.72 "Hg10 mi
2:51 AM26 °FOvercast.9 mph63%29.73 "Hg10 mi
1:51 AM26 °FMostly cloudy.12 mph63%29.74 "Hg10 mi
12:51 AM26 °FMostly cloudy.8 mph63%29.73 "Hg10 mi
11:51 PM
Jan 26
25 °FOvercast.15 mph69%29.75 "Hg10 mi
10:51 PM25 °FMostly cloudy.9 mph72%29.77 "Hg10 mi
9:51 PM24 °FOvercast.17 mph75%29.79 "Hg8 mi
9:04 PM23 °FLight snow. Overcast.17 mph80%29.79 "Hg3 mi
8:51 PM23 °FLight snow. Mostly cloudy.17 mph78%29.80 "Hg2 mi
7:51 PM23 °FOvercast.18 mph74%29.83 "Hg10 mi
6:51 PM22 °FLight snow. Overcast.16 mph78%29.84 "Hg2 mi
5:51 PM21 °FLight snow. Overcast.16 mph78%29.84 "Hg4 mi
5:02 PM19 °FLight snow. Overcast.18 mph79%29.81 "Hg2 mi
3:59 PM19 °FLight snow. Mostly cloudy.16 mph79%29.82 "Hg1 mi
3:03 PM21 °FLight snow. Mostly cloudy.14 mph80%29.83 "Hg2 mi
2:51 PM21 °FLight snow. Mostly cloudy.18 mph74%29.84 "Hg1 mi
1:53 PM19 °FLight snow. More clouds than sun.18 mph73%29.85 "Hg2 mi
12:51 PM20 °FLight snow. Overcast.16 mph74%29.88 "Hg5 mi
12:01 PM19 °FLight snow. Mostly cloudy.18 mph73%29.88 "Hg1 mi
10:53 AM19 °FLight snow. Overcast.16 mph73%29.92 "Hg2 mi
9:50 AM19 °FLight snow. Mostly cloudy.14 mph77%29.95 "Hg1 mi
9:04 AM19 °FLight snow. Overcast.15 mph73%29.95 "Hg2 mi
8:51 AM19 °FLight snow. Overcast.14 mph77%29.97 "Hg2 mi
Weather by CustomWeather, © 2014

See weather overviewHow to use our weather pages